Wind_Speed
2 4 5 5 4 1 1 1 1 1 2 3 4 5 6 7 8 8 10 10 10 10 10 10 11 12 12 13 14 14 14 14 14 14 14 14 13 13 13 13 12 12 12 12 12 13 13 13 13
4 6 7 5 3 1 1 1 0 2 3 4 5 6 7 9 10 11 11 11 11 11 11 12 12 14 15 16 16 17 17 17 17 17 17 17 17 16 16 15 15 14 14 13 14 13 13 13 13
6 7 7 5 2 0 1 2 3 4 4 6 7 8 9 10 12 12 12 13 14 13 14 15 16 16 17 18 19 20 20 21 21 21 20 20 20 20 19 18 17 17 16 15 15 14 14 13 13
8 9 9 6 5 3 3 4 5 6 6 7 9 10 11 12 13 14 14 15 16 17 18 20 20 20 21 22 23 23 24 24 24 24 24 23 23 23 22 21 20 20 19 17 16 16 15 14 14
10 10 10 9 7 5 5 6 7 8 8 9 11 12 13 14 15 16 17 18 19 20 21 22 23 24 24 25 26 27 27 28 27 27 27 26 26 25 25 24 23 22 21 20 19 18 17 16 15
11 12 13 10 8 8 8 8 9 9 10 11 13 14 15 15 17 18 19 20 20 21 22 23 24 25 26 26 28 29 29 30 30 30 29 29 29 28 28 27 26 25 24 23 22 20 19 18 16
13 13 14 12 10 9 10 10 10 11 12 13 14 15 15 16 17 18 20 21 22 22 23 23 23 24 25 25 27 28 29 30 31 31 32 32 32 31 30 29 27 27 26 24 23 22 20 19 18
15 15 14 13 12 11 11 11 12 12 13 13 14 15 15 17 18 19 20 21 21 22 22 23 23 24 24 24 25 26 27 28 29 30 31 32 32 32 32 31 30 29 28 26 25 23 21 20 18
16 16 15 13 12 12 12 12 13 13 13 14 14 15 16 16 17 18 19 19 20 20 21 21 22 22 23 24 24 24 25 26 28 29 30 31 33 33 33 32 32 31 30 29 27 25 23 22 20
17 17 16 15 13 13 13 14 14 14 13 13 14 15 16 16 16 17 17 18 19 19 20 20 20 21 21 22 23 23 24 25 26 28 29 30 31 32 33 34 33 33 33 31 29 28 26 24 22
18 18 17 15 14 15 15 14 13 13 12 13 14 14 15 15 15 15 16 17 17 17 17 18 18 18 19 19 20 21 23 24 24 26 27 29 30 32 32 33 33 32 33 32 30 29 27 25 23
20 19 18 15 15 15 14 13 13 12 12 13 13 14 14 14 13 13 14 15 15 15 16 16 16 17 17 18 19 20 20 21 22 23 24 26 28 30 31 32 32 32 32 32 31 30 28 26 25
21 19 18 16 14 14 12 12 13 12 11 12 13 13 13 11 11 12 12 13 13 14 15 16 16 17 17 17 18 18 19 19 20 20 22 23 25 27 28 30 32 32 32 31 31 31 30 26 25
19 18 17 15 15 14 13 12 11 10 11 12 12 11 10 9 9 10 11 12 13 14 15 16 17 17 18 18 17 18 17 17 16 17 18 20 21 24 25 27 29 31 31 30 30 31 30 28 26
19 17 15 14 14 14 13 12 12 12 12 12 10 10 8 7 8 9 10 11 12 14 15 16 17 18 18 18 18 18 17 16 15 15 16 17 18 20 22 24 26 28 29 29 29 30 31 30 28
18 16 14 13 13 12 12 12 12 11 10 10 9 8 6 6 6 7 9 10 12 14 15 16 17 18 19 19 19 19 18 17 16 15 15 15 16 17 18 21 22 24 26 27 27 28 30 30 29
17 15 13 11 11 10 10 11 11 10 9 8 8 6 4 4 5 6 8 10 12 13 15 16 17 19 19 19 20 20 19 18 17 15 15 14 14 15 15 17 19 21 22 24 25 26 27 29 29
16 14 12 11 11 10 10 11 11 10 8 7 6 5 3 2 3 5 8 10 11 13 14 16 17 19 20 20 20 20 20 19 18 17 16 15 13 12 12 12 14 17 19 21 23 24 25 27 28
15 12 11 11 9 10 10 11 11 9 8 7 6 4 2 1 3 5 7 9 11 12 14 16 18 19 20 20 21 21 20 20 20 19 17 16 14 11 9 9 9 12 16 19 21 22 25 26 27
13 11 10 11 10 10 11 11 11 9 8 7 5 4 3 1 2 4 6 8 10 12 14 16 17 18 19 20 21 21 21 21 21 20 19 17 14 12 10 8 8 9 12 15 18 20 22 25 26
12 11 11 12 11 11 12 11 11 9 8 7 6 5 4 2 2 3 5 7 9 11 14 16 17 18 19 20 21 22 22 22 22 21 20 18 16 14 11 9 7 7 8 12 15 18 20 22 24
13 13 12 13 12 12 12 11 11 10 8 8 7 6 4 3 2 2 4 6 8 10 13 15 16 17 19 20 21 21 22 22 22 22 21 19 17 15 13 11 9 7 7 8 11 15 18 20 22
14 14 14 14 13 12 11 11 10 10 9 8 8 7 5 4 2 2 3 5 7 10 12 14 16 17 18 19 20 21 22 22 22 22 21 20 19 17 15 12 10 8 7 8 9 12 15 18 21
15 15 15 15 13 12 11 11 9 10 9 9 8 7 6 5 3 2 2 4 7 9 11 13 15 17 18 19 20 21 21 22 22 22 21 20 19 18 16 14 11 10 8 8 8 10 12 15 18
15 15 15 15 13 12 12 11 10 10 10 9 9 8 7 6 4 2 1 3 6 8 10 12 14 16 18 19 20 20 21 21 22 22 22 21 20 19 17 16 13 11 9 8 8 9 10 13 16
15 15 16 15 14 12 11 10 10 11 10 10 10 9 8 6 4 2 0 3 6 8 10 12 14 16 17 19 20 20 20 21 21 21 21 21 20 20 18 17 15 13 11 9 8 8 9 11 13
15 16 16 16 15 14 12 10 11 12 12 11 11 10 8 7 5 3 1 3 5 8 10 12 14 15 17 18 19 20 20 20 20 21 21 20 20 20 19 18 17 15 12 10 9 8 8 9 10
14 14 15 16 17 15 13 12 12 13 13 13 12 11 9 7 6 4 2 3 5 8 10 12 14 15 17 18 19 19 20 20 20 20 20 20 20 20 19 19 17 16 14 12 10 9 9 9 9
14 14 15 16 16 16 14 12 13 14 14 14 13 12 10 8 7 5 3 4 6 8 10 12 13 15 16 17 18 19 19 20 20 20 20 20 20 19 19 19 18 17 15 13 12 11 10 9 9
15 15 15 16 16 16 14 11 14 15 15 15 14 13 11 9 8 6 5 5 7 9 10 12 13 15 16 17 18 18 19 20 20 20 20 19 19 19 19 18 18 17 16 15 13 13 12 11 10
Wind_Direction
246 261 273 273 275 236 178 157 26 354 351 345 337 330 325 322 320 318 316 313 308 303 296 287 286 284 283 283 283 283 284 281 278 276 275 272 269 267 265 264 263 265 268 268 267 267 266 266 266
273 279 280 277 279 231 197 231 279 305 315 323 320 318 316 316 315 314 313 309 307 303 296 292 289 285 282 281 280 278 279 279 278 275 273 272 272 270 269 266 266 266 268 269 270 268 267 266 265
274 281 285 273 260 315 296 294 294 296 304 308 307 308 309 310 310 309 307 304 302 296 292 289 287 284 279 276 275 273 274 275 275 273 272 271 270 268 269 268 267 266 266 268 271 267 266 267 266
266 274 283 287 300 288 291 296 296 291 299 304 305 306 307 307 307 306 302 300 297 293 291 288 285 282 277 275 273 272 271 271 271 270 270 269 268 267 267 266 266 269 268 267 268 267 265 266 266
262 268 278 285 295 299 301 295 294 296 301 304 307 308 307 307 305 303 300 299 296 292 291 289 286 282 278 275 274 273 270 269 268 267 267 268 267 266 265 265 264 266 267 265 265 266 263 262 264
257 263 272 282 292 299 295 290 287 294 299 303 307 308 308 306 305 302 301 299 297 294 292 290 288 285 282 279 276 274 271 268 266 265 264 264 265 264 262 261 262 262 264 264 262 262 262 260 260
252 259 267 274 284 291 291 292 288 293 300 304 306 306 307 307 306 304 303 302 301 299 296 294 291 288 285 282 279 276 273 270 266 264 263 262 261 262 262 260 260 261 263 261 260 259 259 258 257
247 255 263 269 276 285 292 293 291 293 298 303 306 307 309 309 308 307 307 307 306 304 303 301 298 294 291 287 283 279 275 273 270 266 264 260 259 259 260 258 258 259 258 258 257 256 256 255 253
246 254 261 266 271 278 285 292 293 293 297 304 307 309 311 311 311 311 312 313 312 311 310 308 304 300 296 293 288 284 280 275 272 269 266 262 260 259 259 257 257 257 256 255 255 254 253 252 250
246 253 262 267 273 279 285 291 294 294 300 305 308 310 312 314 315 317 318 319 319 319 318 315 312 308 304 299 294 289 285 280 275 270 268 265 262 259 257 255 255 255 254 253 253 252 252 249 246
245 252 262 269 274 280 285 289 292 294 299 305 309 312 314 318 320 322 325 327 328 329 328 327 324 319 315 310 304 298 292 287 281 275 270 266 263 261 258 255 254 254 253 252 252 253 252 248 244
244 251 257 272 274 282 285 288 292 296 303 306 309 312 316 321 324 328 334 337 341 342 343 342 339 333 328 322 317 310 302 294 286 280 274 269 265 262 259 256 254 253 252 251 250 249 249 246 243
243 251 260 265 271 278 286 288 291 295 300 306 310 312 316 321 327 337 343 348 351 353 354 353 349 344 339 333 327 321 314 305 296 286 279 273 269 265 261 258 253 251 250 249 247 245 245 245 241
244 251 259 269 269 275 283 287 290 295 301 305 306 308 315 324 336 349 355 359 3 5 4 2 359 354 350 345 340 334 327 319 310 300 289 280 273 268 263 259 253 250 248 245 244 243 242 243 240
244 252 261 270 272 276 280 283 289 291 294 298 300 306 316 332 350 1 6 8 11 10 8 5 2 359 356 354 351 347 341 333 323 313 302 291 282 275 266 259 254 249 246 244 242 241 240 241 241
243 252 260 270 275 276 278 283 288 286 285 288 293 301 317 340 1 12 16 17 16 14 10 7 5 4 2 0 359 356 351 345 337 328 316 305 294 283 274 263 255 248 244 243 242 241 239 240 239
243 252 259 268 276 274 275 280 285 282 279 282 287 294 312 346 16 25 25 24 21 18 14 12 11 10 7 4 3 1 358 354 348 342 333 322 310 295 282 271 258 249 244 242 242 242 240 239 238
242 248 255 264 267 273 277 277 280 279 272 274 276 280 298 359 36 35 31 29 25 22 19 18 17 15 12 9 7 5 3 0 357 352 347 339 330 316 297 282 264 250 245 242 241 240 239 238 238
243 248 253 260 263 268 275 276 276 274 264 259 261 262 259 68 53 45 38 32 28 25 23 21 19 17 15 13 10 9 7 6 3 0 357 351 344 336 322 302 277 257 248 243 242 240 238 238 239
241 246 252 255 257 266 269 270 268 266 254 247 246 243 227 166 88 60 45 35 30 27 25 23 20 18 16 15 13 12 11 9 8 6 4 1 356 349 338 323 298 271 254 245 242 241 238 237 237
239 245 251 259 262 267 269 266 264 255 246 238 232 231 220 177 116 71 49 36 30 27 26 22 19 18 16 15 14 14 13 12 11 10 9 7 6 1 353 341 322 295 269 252 245 243 243 240 236
238 246 254 262 263 266 269 261 255 250 242 231 227 226 213 183 143 85 54 38 31 27 25 21 18 17 16 15 14 13 13 13 12 11 10 10 8 6 2 354 340 318 294 270 255 249 245 241 238
237 246 254 262 265 267 267 260 250 246 236 226 224 219 208 192 166 108 61 42 32 27 23 19 16 15 14 13 13 13 12 12 12 12 11 11 10 7 4 358 349 333 308 286 269 259 251 245 241
238 247 255 261 264 263 264 261 253 244 232 225 220 214 206 198 182 137 68 41 30 24 19 15 13 12 11 10 10 10 10 10 11 11 11 10 9 8 6 3 355 344 325 303 283 269 261 252 247
240 249 256 258 262 264 263 259 253 245 238 228 220 212 205 200 192 167 69 33 24 18 13 10 9 8 8 7 7 7 7 7 8 9 9 9 9 8 7 4 359 350 336 319 300 281 269 261 254
245 252 256 261 263 265 261 258 250 245 240 229 219 213 208 205 200 192 58 22 16 11 7 5 5 4 4 4 5 5 5 5 5 6 8 8 8 8 7 6 3 357 349 338 320 299 283 272 263
248 253 258 262 266 266 262 257 247 242 236 228 220 214 212 210 208 209 268 359 2 2 0 359 359 359 360 1 2 3 3 3 3 4 5 7 7 8 7 7 7 5 1 354 341 324 304 289 275
255 257 260 265 268 268 262 254 244 237 232 226 221 218 218 216 217 226 272 333 348 351 352 354 355 355 356 357 358 0 1 1 2 2 3 4 5 7 8 7 7 7 5 1 352 339 322 307 292
259 262 264 266 269 269 262 250 241 236 228 224 221 220 221 223 226 240 273 314 333 341 346 348 350 351 352 353 355 357 359 360 0 1 2 3 4 5 6 6 6 5 4 1 357 348 336 322 306
262 265 266 268 268 267 261 245 238 234 225 223 222 223 225 228 234 248 271 301 322 332 338 341 344 345 347 349 351 354 356 357 358 360 0 1 1 2 2 3 4 3 1 359 356 350 342 332 318
Height
5886 5886 5886 5886 5886 5885 5886 5887 5886 5886 5886 5886 5886 5885 5885 5885 5885 5886 5883 5881 5880 5879 5879 5878 5877 5876 5875 5875 5874 5873 5873 5872 5872 5872 5872 5872 5873 5873 5873 5874 5874 5875 5875 5876 5876 5877 5877 5878 5879
5886 5886 5886 5885 5884 5884 5886 5886 5886 5886 5886 5885 5885 5884 5884 5883 5882 5882 5880 5879 5878 5877 5876 5876 5875 5874 5873 5872 5871 5871 5870 5870 5869 5869 5869 5869 5870 5870 5870 5871 5871 5872 5872 5873 5873 5874 5875 5875 5876
5885 5885 5885 5884 5883 5884 5885 5885 5885 5885 5884 5884 5884 5883 5882 5881 5880 5879 5878 5877 5876 5875 5874 5873 5872 5871 5870 5869 5868 5868 5867 5866 5866 5866 5866 5866 5866 5867 5867 5868 5868 5869 5869 5870 5870 5871 5872 5873 5873
5884 5885 5884 5884 5883 5884 5884 5884 5884 5884 5883 5883 5883 5882 5880 5879 5878 5877 5876 5874 5873 5872 5871 5870 5869 5868 5867 5865 5864 5864 5863 5862 5862 5862 5862 5862 5862 5863 5863 5864 5865 5865 5866 5867 5867 5868 5869 5870 5871
5883 5884 5883 5883 5883 5883 5883 5883 5883 5883 5882 5882 5881 5879 5878 5877 5875 5874 5873 5871 5870 5869 5867 5866 5865 5863 5862 5861 5860 5859 5858 5858 5857 5857 5857 5857 5857 5858 5859 5859 5860 5861 5862 5863 5864 5865 5865 5867 5868
5882 5882 5882 5882 5882 5882 5882 5882 5882 5881 5881 5880 5879 5878 5876 5874 5873 5871 5869 5868 5866 5865 5863 5862 5860 5858 5857 5856 5854 5853 5853 5852 5851 5851 5851 5852 5852 5853 5853 5854 5855 5856 5857 5859 5859 5861 5862 5863 5864
5881 5880 5880 5881 5881 5881 5881 5880 5880 5879 5879 5878 5877 5875 5873 5872 5870 5868 5866 5864 5862 5860 5858 5857 5855 5853 5851 5850 5848 5847 5846 5845 5845 5844 5845 5845 5846 5847 5848 5849 5850 5851 5852 5854 5855 5856 5857 5859 5861
5877 5879 5878 5878 5879 5879 5879 5878 5877 5877 5876 5876 5874 5873 5871 5869 5867 5865 5863 5861 5858 5856 5854 5852 5849 5847 5846 5844 5842 5841 5840 5839 5838 5838 5838 5839 5839 5840 5841 5843 5844 5846 5847 5849 5850 5851 5853 5854 5856
5875 5877 5875 5876 5876 5877 5876 5876 5875 5874 5874 5873 5871 5870 5869 5866 5864 5862 5860 5857 5855 5852 5850 5847 5845 5842 5840 5838 5837 5835 5834 5833 5832 5831 5831 5832 5832 5833 5835 5836 5838 5839 5841 5843 5845 5846 5848 5850 5852
5872 5873 5873 5873 5874 5874 5874 5874 5873 5873 5872 5870 5869 5867 5865 5863 5861 5859 5857 5854 5851 5849 5846 5843 5841 5838 5835 5833 5831 5829 5828 5826 5826 5825 5825 5825 5825 5826 5828 5829 5830 5833 5835 5837 5839 5841 5843 5845 5847
5869 5869 5870 5870 5871 5871 5871 5871 5871 5870 5869 5868 5867 5865 5863 5860 5858 5856 5854 5851 5848 5846 5843 5840 5837 5834 5831 5829 5826 5824 5822 5820 5819 5818 5818 5818 5818 5819 5820 5821 5823 5825 5828 5830 5833 5835 5838 5840 5842
5866 5866 5867 5868 5869 5869 5869 5869 5868 5868 5867 5866 5864 5862 5860 5858 5856 5854 5852 5849 5846 5843 5840 5837 5834 5831 5828 5825 5822 5820 5817 5815 5813 5812 5812 5811 5811 5812 5813 5815 5816 5819 5821 5823 5826 5829 5832 5835 5837
5862 5863 5865 5866 5867 5867 5866 5866 5866 5865 5864 5863 5861 5860 5858 5856 5854 5852 5850 5847 5844 5841 5839 5836 5832 5829 5826 5823 5819 5816 5813 5810 5808 5807 5806 5805 5805 5805 5806 5807 5809 5811 5814 5817 5820 5823 5826 5829 5832
5860 5861 5863 5864 5864 5864 5864 5864 5863 5863 5862 5860 5859 5858 5856 5854 5852 5850 5848 5845 5843 5840 5837 5834 5831 5827 5824 5820 5817 5813 5810 5807 5804 5802 5801 5800 5799 5799 5799 5800 5802 5804 5807 5810 5813 5816 5820 5823 5827
5857 5859 5861 5861 5861 5861 5862 5861 5861 5860 5859 5858 5857 5855 5854 5852 5850 5848 5846 5844 5842 5839 5836 5833 5830 5826 5822 5819 5815 5811 5807 5804 5801 5799 5796 5795 5794 5793 5793 5794 5795 5798 5800 5803 5807 5810 5814 5817 5821
5855 5857 5859 5859 5859 5859 5861 5860 5859 5858 5856 5856 5855 5853 5852 5850 5849 5847 5845 5843 5841 5838 5836 5832 5829 5825 5821 5817 5813 5810 5806 5802 5799 5796 5793 5791 5789 5788 5787 5788 5789 5791 5794 5797 5801 5804 5808 5811 5815
5852 5854 5856 5857 5857 5857 5857 5857 5856 5855 5854 5854 5853 5851 5850 5849 5847 5846 5844 5842 5840 5838 5835 5832 5828 5825 5821 5817 5813 5809 5805 5801 5797 5794 5791 5788 5785 5783 5782 5782 5783 5786 5788 5792 5795 5798 5802 5805 5809
5850 5852 5853 5854 5855 5855 5855 5854 5854 5853 5852 5851 5851 5850 5849 5848 5847 5845 5844 5842 5840 5837 5835 5832 5828 5824 5820 5817 5813 5808 5804 5800 5796 5792 5789 5785 5782 5780 5779 5778 5779 5781 5784 5787 5790 5793 5796 5800 5803
5847 5849 5850 5851 5852 5852 5852 5852 5852 5851 5850 5850 5849 5848 5847 5847 5846 5845 5843 5841 5840 5837 5835 5831 5828 5824 5821 5817 5813 5809 5804 5800 5796 5792 5788 5784 5781 5778 5777 5776 5776 5778 5780 5782 5785 5788 5791 5794 5797
5845 5847 5848 5849 5849 5850 5849 5849 5849 5849 5848 5848 5848 5847 5846 5846 5845 5844 5842 5841 5839 5837 5834 5831 5828 5825 5821 5817 5813 5809 5805 5800 5796 5791 5787 5783 5780 5777 5776 5775 5774 5775 5777 5778 5781 5783 5786 5789 5792
5843 5845 5846 5847 5847 5847 5847 5848 5847 5847 5846 5846 5846 5846 5845 5845 5844 5843 5842 5841 5839 5837 5834 5831 5828 5825 5822 5818 5814 5810 5805 5801 5796 5792 5788 5784 5780 5777 5775 5774 5773 5773 5774 5775 5777 5779 5781 5784 5787
5841 5843 5844 5844 5844 5845 5845 5845 5845 5844 5844 5844 5845 5845 5844 5844 5843 5842 5841 5840 5839 5836 5834 5831 5829 5826 5822 5819 5815 5811 5806 5802 5797 5793 5789 5785 5781 5778 5775 5773 5772 5771 5771 5772 5773 5775 5777 5779 5781
5839 5840 5841 5841 5842 5842 5842 5842 5843 5842 5842 5843 5843 5843 5843 5842 5842 5841 5840 5839 5838 5836 5834 5831 5829 5826 5822 5819 5815 5811 5807 5803 5798 5794 5790 5786 5782 5778 5775 5773 5771 5770 5770 5770 5770 5771 5772 5774 5776
5837 5838 5838 5838 5839 5840 5840 5840 5840 5840 5840 5841 5841 5841 5841 5841 5841 5840 5840 5839 5837 5835 5833 5831 5829 5826 5822 5819 5815 5812 5808 5803 5799 5795 5791 5787 5783 5779 5776 5773 5771 5769 5768 5767 5767 5768 5768 5770 5771
5835 5836 5836 5836 5837 5838 5837 5837 5838 5838 5838 5839 5839 5840 5840 5840 5840 5839 5839 5838 5836 5835 5833 5831 5828 5825 5822 5819 5815 5812 5808 5804 5800 5796 5791 5787 5783 5780 5776 5773 5770 5768 5766 5765 5765 5765 5765 5766 5767
5832 5833 5834 5834 5835 5835 5834 5835 5836 5836 5836 5837 5838 5838 5839 5839 5839 5838 5837 5836 5835 5834 5832 5830 5828 5825 5822 5819 5815 5812 5808 5804 5800 5796 5792 5788 5784 5780 5776 5773 5770 5767 5765 5763 5762 5762 5762 5763 5763
5829 5830 5831 5831 5831 5831 5832 5833 5834 5833 5834 5835 5836 5837 5837 5837 5837 5837 5836 5835 5834 5833 5831 5829 5827 5824 5822 5818 5815 5811 5808 5804 5800 5796 5792 5788 5784 5780 5776 5773 5769 5766 5764 5762 5761 5760 5760 5760 5760
5828 5828 5828 5828 5828 5828 5829 5830 5831 5831 5832 5833 5834 5835 5835 5836 5836 5835 5835 5834 5833 5832 5830 5828 5826 5824 5821 5818 5815 5811 5807 5804 5800 5796 5792 5788 5784 5780 5777 5773 5770 5767 5764 5762 5760 5759 5758 5757 5757
5825 5826 5825 5825 5825 5825 5826 5829 5828 5828 5829 5830 5832 5832 5833 5834 5834 5834 5833 5832 5831 5830 5829 5827 5825 5823 5820 5817 5814 5810 5807 5803 5800 5796 5792 5788 5784 5781 5777 5774 5770 5767 5764 5762 5760 5758 5756 5755 5754
5822 5822 5822 5822 5822 5822 5822 5827 5824 5825 5826 5828 5829 5830 5831 5831 5832 5832 5831 5831 5830 5828 5827 5825 5824 5821 5819 5816 5813 5810 5806 5803 5799 5795 5792 5788 5784 5781 5777 5774 5770 5767 5764 5761 5759 5756 5754 5752 5751